Tracking 19293 objects as of 21-Nov-2018
HD Live streaming from Space Station
objects crossing your sky now

HELIOS 1A

Track HELIOS 1A now!
10-day predictions
HELIOS 1A is classified as:


NORAD ID: 23605
Int'l Code: 1995-033A
Perigee: 592.1 km
Apogee: 611.4 km
Inclination: 98.2 °
Period: 96.6 minutes
Semi major axis: 6972 km
RCS: Unknown
Launch date: July 7, 1995
Source: France (FR)
Launch site: FRENCH GUIANA (FRGUI)

Optical reconnaissance; cannot see through clouds or at night.
aabbcc
Your satellite tracking list
Your tracking list is empty




NASA's NSSDC Master Catalog

Two Line Element Set (TLE):
1 23605U 95033A   18257.90731236 0.00000200  00000-0  20187-4 0    07
2 23605  98.2005 328.9586 0013825  38.7261 321.2738 14.91074159    06
Source of the keplerian elements: McCants